Tracking 30696 objects as of 15-Jun-2025
HD Live streaming from Space Station
objects crossing your sky now

STARLINK-2480

Track STARLINK-2480 now!
10-day predictions
STARLINK-2480 is classified as:


NORAD ID: 48137
Int'l Code: 2021-027AX
Perigee: 553.4 km
Apogee: 555.4 km
Inclination: 53.1 °
Period: 95.6 minutes
Semi major axis: 6925 km
RCS: Unknown
Launch date: April 7, 2021
Source: United States (US)
Launch site: AIR FORCE EASTERN TEST RANGE (AFETR)
Your satellite tracking list
Your tracking list is empty




NASA's NSSDC Master Catalog

Two Line Element Set (TLE):
1 48137U 21027AX  25165.58004621 -.00008267  00000-0 -53700-3 0  9993
2 48137  53.0546 275.1809 0001486  94.1712 265.9447 15.06383538232289
Source of the keplerian elements: AFSPC